Regional Weather Roundup
Issued by NWS

Home | Current Version | Previous Version | Graphics & Text | Print | Product List | Glossary Off
Versions: 1 2 3 4 5 6 7 8 9 10 11 12 13 14 15 16 17 18 19 20 21 22 23 24 25 26 27 28 29 30 31 32 33 34 35 36 37 38 39 40 41 42 43 44 45 46 47 48 49 50

000
ASUS43 KDTX 262310
RWRMI
MICHIGAN HOURLY REGIONAL WEATHER ROUNDUP
NATIONAL WEATHER SERVICE DETROIT/PONTIAC MI
600 PM EST MON JAN 26 2015

NOTE: "FAIR" INDICATES FEW OR NO CLOUDS BELOW 12,000 FEET WITH NO
SIGNIFICANT WEATHER AND/OR OBSTRUCTION TO VISIBILITY.

MIZ047>049-052>055-059>063-066>070-074>076-081>083-270000-
SOUTHEAST LOWER MICHIGAN

CITY           SKY/WX    TMP DP  RH WIND       PRES   REMARKS
ADRIAN         PTCLDY    22   8  55 CALM      29.92S
ALMA           CLEAR     17  10  71 E7        29.93S
ANN ARBOR      PTCLDY    23   5  46 CALM      29.92R
BAD AXE        CLEAR     17   8  70 NE3       29.95S
DETROIT CITY   CLEAR     21  10  62 E7        29.94R
DETROIT        MOCLDY    23   9  55 E6        29.93R
FLINT          CLEAR     22   9  57 NE7       29.93R
GROSSE ILE     CLEAR     19   9  63 E3        29.92R
HILLSDALE      PTCLDY    22   3  45 CALM      29.88S
HOWELL         CLEAR     21   8  57 CALM      29.91R

CITY           SKY/WX    TMP DP  RH WIND       PRES   REMARKS
JACKSON        PTCLDY    22   7  52 CALM      29.90R
LAMBERTVILLE   PTCLDY    21  12  68 CALM      29.94R
LANSING        PTCLDY    20   9  62 NE6       29.92S
LAPEER         NOT AVBL
MASON          PTCLDY    21   8  56 CALM      29.91R
MONROE         CLEAR     18  10  73 SE3       29.92R
MT. CLEMENS    PTCLDY    19  12  74 N9        29.91R
PONTIAC        PTCLDY    20   7  57 NE7       29.90R
PORT HOPE        N/A     20  10  65 E14       29.95S
PORT HURON     MOCLDY    18  12  79 N3        29.94S
TRI CITIES     CLEAR     20  12  71 NE6       29.96R
YPSILANTI      PTCLDY    24   8  50 NW3       29.92R
$$
MIZ043>046-050>051-056>058-064>065-071>073-077>080-270000-
SOUTHWEST LOWER MICHIGAN

CITY           SKY/WX    TMP DP  RH WIND       PRES   REMARKS
BATTLE CREEK   MOCLDY    26   5  40 SE5       29.89F
BENTON HARBOR  MOCLDY    23  12  62 SE6       29.90S
BIG RAPIDS     MOCLDY    20   6  55 E6        29.90R
COLDWATER      MOCLDY    21   6  51 CALM      29.89F
HOLLAND        MOCLDY    24   2  38 E7        29.91R
GRAND RAPIDS   MOCLDY    21   8  57 E8        29.91S
KALAMAZOO      CLOUDY    24   5  44 SE3       29.89F
MARSHALL       MOCLDY    22   7  53 CALM      29.89S
MUSKEGON       CLOUDY    23   7  50 E6        29.91R
$$
MIZ016>042-270000-
NORTHERN LOWER MICHIGAN

CITY           SKY/WX    TMP DP  RH WIND       PRES   REMARKS
ALPENA         FLURRIES  19  12  74 E8        30.00R
BEAVER ISLAND  CLOUDY    20  10  65 E5        29.95S
BELLAIRE       MOCLDY    22   7  52 NE3       29.96R
CADILLAC       PTCLDY    17   6  60 CALM      29.88R
CHARLEVOIX     CLEAR     21  10  61 E5        29.98R
FRANKFORT      CLEAR     21  10  62 CALM      29.92S
GAYLORD        CLOUDY    17   8  67 NE5       29.91R
GRAYLING       CLEAR     16   5  62 CALM      29.93R
HARBOR SPRINGS CLOUDY    20   9  62 E8        29.96S
HOUGHTON LAKE  CLEAR     18   7  62 E6        29.92R
MANISTEE       CLEAR     21   3  45 E5        29.93R
OSCODA         CLOUDY    20  12  70 NE8       29.98R
PELLSTON       CLOUDY    20   9  62 E10       29.98R
TRAVERSE CITY  MOCLDY    23   6  48 CALM      29.93R
$$
MIZ007>008-015-270000-
EASTERN UPPER MICHIGAN

CITY           SKY/WX    TMP DP  RH WIND       PRES   REMARKS
KINROSS        PTCLDY    12   7  79 E12       29.99S WCI  -2
MACKINAC ISLAN LGT SNOW  21  15  80 SE9       29.97S
NEWBERRY       CLOUDY    18  12  76 SE9       29.94R
S. S. MARIE    CLEAR     13  -1  54 E7        30.00R
$$
MIZ004>006-011>014-085-270000-
CENTRAL UPPER MICHIGAN

CITY           SKY/WX    TMP DP  RH WIND       PRES   REMARKS
MANISTIQUE     CLOUDY    20  13  72 SE9       29.93S
ESCANABA       CLOUDY    25  14  63 SE12G18   29.90R
MENOMINEE      CLOUDY    25  21  86 SE10      29.87S
SAWYER-GWINN   LGT SNOW  21  18  86 S15       29.84R
$$
MIZ001>003-009>011-084-270000-
WESTERN UPPER MICHIGAN

CITY           SKY/WX    TMP DP  RH WIND       PRES   REMARKS
IRON MOUNTAIN  LGT SNOW  22  16  78 SE8       29.82R
HOUGHTON       FLURRIES  22  14  71 S9        29.80R
COPPER HARBOR    N/A     25  17  72 SW7G21    29.85R
IRONWOOD       CLOUDY    21  18  86 S5        29.75R
$$

ABBREVIATIONS USED IN REMARKS
   TC - TEMPERATURE IN CELSIUS
  WCI - WIND CHILL INDEX
   HX - HEAT INDEX
  VSB - VISIBILITY



USA.gov is the U.S. government's official web portal to all federal, state and local government web resources and services.